Weather reports worldwide

Advertisment
Sete, France (7641): temperature & dewpoint: 18.06.2018 11:00:00 - 24.06.2018 11:00:00 (CEST)Sete, France (7641): wind speed & gusts: 18.06.2018 11:00:00 - 24.06.2018 11:00:00 (CEST)Sete, France (7641): wind direction: 18.06.2018 11:00:00 - 24.06.2018 11:00:00 (CEST)Sete, France (7641): reduced air pressure: 18.06.2018 11:00:00 - 24.06.2018 11:00:00 (CEST)Sete, France (7641): visibility: 18.06.2018 11:00:00 - 24.06.2018 11:00:00 (CEST)Sete, France (7641): precipitation: 18.06.2018 11:00:00 - 24.06.2018 11:00:00 (CEST)
Date & Time tt [°C] td [°C] ff [km/h] ff [kn] fx [km/h] fx [kn] dd ppp [hPa] vv [km] rr [mm]
24.06.2018 11:00:00 - - - - - - - - - -
24.06.2018 10:00:00 24,2 12,8 9 5 15 8 SSW 1017,7 - 0,0
24.06.2018 09:00:00 23,9 13,1 4 2 13 7 SSE 1017,7 - 0,0
24.06.2018 08:00:00 24,4 12,4 6 4 17 9 N 1017,4 20 0,0
24.06.2018 07:00:00 22,1 13,7 11 6 18 10 NNW 1017,4 - 0,0
24.06.2018 06:00:00 21,0 14,6 11 6 15 8 NNW 1017,3 - 0,0
24.06.2018 05:00:00 20,9 14,3 5 3 9 5 NW 1016,9 - 0,0
24.06.2018 04:00:00 21,3 13,7 5 3 6 3 NNW 1017,3 - 0,0
24.06.2018 03:00:00 21,2 13,6 3 2 14 8 N 1017,8 - 0,0
24.06.2018 02:00:00 21,2 15,3 12 6 22 12 NNW 1018,1 - 0,0
24.06.2018 01:00:00 21,4 14,5 8 5 18 10 NW 1018,3 - 0,0
24.06.2018 00:00:00 21,4 15,7 12 7 19 10 W 1018,4 - 0,0
23.06.2018 23:00:00 22,0 16,3 12 7 19 10 WSW 1018,6 - 0,0
23.06.2018 22:00:00 22,6 15,7 11 6 16 8 SSW 1018,0 - 0,0
23.06.2018 21:00:00 23,5 15,3 8 4 17 9 SW 1017,2 - 0,0
23.06.2018 20:00:00 23,8 13,1 14 8 22 12 SW 1017,2 20 0,0
23.06.2018 19:00:00 24,6 14,1 11 6 21 11 SSW 1017,1 - 0,0
23.06.2018 18:00:00 26,5 14,3 9 5 17 9 S 1017,4 - 0,0
23.06.2018 17:00:00 25,5 13,4 7 4 26 14 ESE 1017,9 - 0,0
23.06.2018 16:00:00 26,7 11,2 11 6 23 13 E 1017,9 - 0,0
23.06.2018 15:00:00 26,4 10,1 10 6 27 15 E 1018,1 - 0,0
23.06.2018 14:00:00 25,2 9,5 12 6 31 17 E 1018,7 - 0,0
23.06.2018 13:00:00 26,7 3,8 20 11 39 21 NNE 1019,3 - 0,0
23.06.2018 12:00:00 25,7 2,4 23 13 43 23 NNE 1019,3 - 0,0
23.06.2018 11:00:00 25,3 0,7 21 12 33 18 NNE 1019,2 - 0,0
23.06.2018 10:00:00 24,0 3,3 16 9 27 15 N 1019,2 - 0,0
23.06.2018 09:00:00 22,1 3,2 13 7 29 15 N 1019,1 - 0,0
23.06.2018 08:00:00 20,4 3,6 14 7 31 17 N 1018,9 20 0,0
23.06.2018 07:00:00 19,3 4,2 14 8 25 14 N 1018,7 - 0,0
23.06.2018 06:00:00 18,8 3,0 14 8 25 13 N 1018,5 - 0,0
23.06.2018 05:00:00 19,2 2,5 12 7 24 13 N 1018,4 20 0,0
23.06.2018 04:00:00 19,7 3,0 12 7 20 11 NNW 1018,5 - 0,0
23.06.2018 03:00:00 20,2 3,0 14 7 28 15 NNW 1018,5 - 0,0
23.06.2018 02:00:00 20,0 5,2 17 9 30 16 NNW 1018,5 - 0,0
23.06.2018 01:00:00 21,0 4,1 17 9 32 17 NNW 1018,2 - 0,0
23.06.2018 00:00:00 22,2 3,8 18 10 28 15 NNW 1018,3 - 0,0
22.06.2018 23:00:00 23,4 2,2 14 7 26 14 NNW 1017,9 - 0,0
22.06.2018 22:00:00 25,1 1,9 17 9 31 17 NNW 1017,0 - 0,0
22.06.2018 21:00:00 26,7 4,4 13 7 42 23 N 1016,1 - 0,0
22.06.2018 20:00:00 28,2 5,7 15 8 38 21 N 1015,5 - 0,0
22.06.2018 19:00:00 30,0 2,3 21 11 41 22 N 1015,1 - 0,0
22.06.2018 18:00:00 31,3 6,4 13 7 37 20 NW 1014,6 - 0,0
22.06.2018 17:00:00 31,5 4,3 16 9 38 20 NNW 1014,6 - 0,0
22.06.2018 16:00:00 31,3 2,5 17 9 39 21 NNW 1014,7 - 0,0
22.06.2018 15:00:00 30,4 3,4 13 7 40 22 NNW 1015,2 - 0,0
22.06.2018 14:00:00 28,2 9,0 8 5 20 11 SSE 1016,0 18 0,0
22.06.2018 13:00:00 24,9 10,7 8 4 24 13 ESE 1016,6 - 0,0
22.06.2018 12:00:00 24,2 14,9 6 3 20 11 E 1017,0 - 0,0
22.06.2018 11:00:00 25,4 14,5 7 4 30 16 E 1016,9 18 0,0
22.06.2018 10:00:00 26,1 13,9 12 6 34 18 NNW 1016,8 - 0,0
22.06.2018 09:00:00 24,8 14,6 16 9 32 17 N 1016,9 - 0,0
22.06.2018 08:00:00 23,5 15,3 9 5 19 11 NNW 1016,7 20 0,0
22.06.2018 07:00:00 23,3 15,4 13 7 20 11 NNW 1016,5 - 0,0
22.06.2018 06:00:00 23,6 15,1 11 6 19 10 NW 1016,1 - 0,0
22.06.2018 05:00:00 23,5 16,3 5 3 16 9 N 1016,1 20 0,0
22.06.2018 04:00:00 24,4 17,6 3 2 11 6 E 1016,1 - 0,0
22.06.2018 03:00:00 25,8 18,0 4 2 22 12 ENE 1016,0 - 0,0
22.06.2018 02:00:00 26,5 18,1 15 8 30 16 NW 1015,8 - 0,0
22.06.2018 01:00:00 26,9 18,5 18 10 36 19 NW 1015,5 - 0,0
22.06.2018 00:00:00 27,4 18,1 21 11 33 18 NW 1015,4 - 0,0
21.06.2018 23:00:00 26,8 19,4 7 4 16 9 NW 1015,3 - 0,0
21.06.2018 22:00:00 28,2 19,2 10 5 23 12 NNW 1014,7 - 0,0
21.06.2018 21:00:00 29,4 18,2 8 4 29 16 NW 1014,3 - 0,0
21.06.2018 20:00:00 24,8 18,3 18 10 45 24 WSW 1014,1 15 0,0
21.06.2018 19:00:00 24,2 17,9 23 12 43 23 SW 1014,0 - 0,0
21.06.2018 18:00:00 25,4 17,3 17 9 40 21 SW 1014,4 - 0,0
21.06.2018 17:00:00 24,4 17,9 24 13 42 23 SW 1015,1 - 0,0
21.06.2018 16:00:00 25,9 16,2 20 11 37 20 SSW 1015,5 - 0,0
21.06.2018 15:00:00 25,8 14,9 21 11 34 18 SSW 1016,0 - 0,0
21.06.2018 14:00:00 25,8 17,4 14 8 28 15 SSW 1016,5 - 0,0
21.06.2018 13:00:00 25,8 16,4 16 8 26 14 SSW 1016,8 - 0,0
21.06.2018 12:00:00 25,0 16,7 11 6 19 10 SSW 1017,4 - 0,0
21.06.2018 11:00:00 24,0 18,6 10 5 17 9 SSW 1017,5 - 0,0
21.06.2018 10:00:00 24,8 18,3 7 4 14 8 SSW 1017,8 - 0,0
21.06.2018 09:00:00 23,8 18,9 4 2 10 5 ESE 1017,8 - 0,0
21.06.2018 08:00:00 24,2 17,2 6 4 12 6 N 1017,5 - 0,0
21.06.2018 07:00:00 21,7 18,3 7 4 12 6 N 1017,6 - 0,0
21.06.2018 06:00:00 21,2 18,0 8 4 14 7 NNE 1017,4 - 0,0
21.06.2018 05:00:00 22,1 17,5 10 5 14 7 N 1017,4 - 0,0
21.06.2018 04:00:00 22,5 15,6 3 1 7 4 NNW 1017,6 - 0,0
21.06.2018 03:00:00 23,6 15,4 8 4 13 7 WNW 1018,2 - 0,0
21.06.2018 02:00:00 22,9 16,9 3 2 14 7 ENE 1018,4 - 0,0
21.06.2018 01:00:00 23,1 16,2 8 5 15 8 WNW 1018,6 - 0,0
21.06.2018 00:00:00 23,2 16,7 3 1 18 10 W 1018,8 - 0,0
20.06.2018 23:00:00 23,2 16,5 12 6 18 10 WSW 1018,9 - 0,0
20.06.2018 22:00:00 23,4 16,7 13 7 18 10 WSW 1018,5 - 0,0
20.06.2018 21:00:00 23,0 16,8 9 5 18 10 SW 1018,1 - 0,0
20.06.2018 20:00:00 22,9 18,2 10 5 19 10 SSW 1018,1 - 0,0
20.06.2018 19:00:00 24,2 18,6 10 5 18 10 SSW 1018,0 - 0,0
20.06.2018 18:00:00 25,0 17,5 11 6 22 12 S 1018,1 - 0,0
20.06.2018 17:00:00 26,7 16,6 11 6 20 11 S 1018,5 20 0,0
20.06.2018 16:00:00 27,0 16,9 9 5 20 11 S 1018,6 - 0,0
20.06.2018 15:00:00 28,1 16,7 10 6 21 11 S 1018,7 - 0,0
20.06.2018 14:00:00 27,9 16,8 6 4 13 7 S 1019,0 20 0,0
20.06.2018 13:00:00 27,9 16,5 6 3 15 8 ESE 1019,2 - 0,0
20.06.2018 12:00:00 27,4 15,7 5 3 11 6 SE 1019,5 - 0,0
20.06.2018 11:00:00 27,7 14,0 6 4 11 6 S 1019,4 - 0,0
20.06.2018 10:00:00 27,8 14,1 4 2 8 4 SSE 1019,2 - 0,0
20.06.2018 09:00:00 26,2 15,9 4 2 11 6 NNE 1019,1 - 0,0
20.06.2018 08:00:00 24,5 17,0 7 4 10 5 NNE 1019,0 - 0,0
20.06.2018 07:00:00 24,7 15,6 2 1 9 5 ENE 1018,7 - 0,0
20.06.2018 06:00:00 23,5 15,3 7 4 10 5 SW 1018,5 - 0,0
20.06.2018 05:00:00 23,3 15,6 3 2 5 3 SW 1018,4 - 0,0
20.06.2018 04:00:00 24,0 15,5 3 1 6 3 ESE 1018,6 - 0,0
20.06.2018 03:00:00 24,3 15,0 3 2 8 4 E 1018,9 - 0,0
20.06.2018 02:00:00 23,5 15,3 4 2 10 5 NNE 1019,1 - 0,0
20.06.2018 01:00:00 24,2 15,4 3 2 10 6 NNE 1019,2 - 0,0
20.06.2018 00:00:00 25,6 15,9 7 4 17 9 WNW 1019,2 - 0,0
19.06.2018 23:00:00 26,4 14,5 10 5 19 10 W 1018,9 - 0,0
19.06.2018 22:00:00 26,9 14,3 12 7 19 10 W 1018,3 - 0,0
19.06.2018 21:00:00 27,0 14,7 13 7 21 11 W 1018,0 - 0,0
19.06.2018 20:00:00 27,1 13,8 15 8 21 12 WSW 1018,2 - 0,0
19.06.2018 19:00:00 28,2 13,7 10 5 19 10 SW 1018,4 - 0,0
19.06.2018 18:00:00 29,0 13,6 8 4 18 10 SW 1018,8 - 0,0
19.06.2018 17:00:00 29,2 13,8 9 5 19 10 SSW 1019,1 20 0,0
19.06.2018 16:00:00 28,8 13,5 8 5 21 12 SSW 1019,4 - 0,0
19.06.2018 15:00:00 28,9 13,2 5 3 18 10 SSW 1019,7 - 0,0
19.06.2018 14:00:00 29,2 13,8 5 3 15 8 S 1020,0 - 0,0
19.06.2018 13:00:00 28,2 12,5 5 3 28 15 S 1020,3 - 0,0
19.06.2018 12:00:00 27,6 12,0 18 10 34 19 N 1020,5 - 0,0
19.06.2018 11:00:00 26,8 11,7 14 8 35 19 N 1020,7 - 0,0
19.06.2018 10:00:00 25,3 12,2 13 7 30 16 NNW 1021,0 - 0,0
19.06.2018 09:00:00 23,0 12,9 16 9 35 19 NW 1021,1 - 0,0
19.06.2018 08:00:00 21,6 12,4 16 9 37 20 NW 1021,0 20 0,0
19.06.2018 07:00:00 20,4 12,6 19 10 40 22 NNW 1020,8 - 0,0
19.06.2018 06:00:00 19,9 12,6 23 12 41 22 NW 1020,6 - 0,0
19.06.2018 05:00:00 20,1 13,1 23 12 44 24 NW 1020,4 - 0,0
19.06.2018 04:00:00 20,5 13,5 26 14 47 25 NW 1020,5 - 0,0
19.06.2018 03:00:00 20,7 14,1 26 14 45 25 NW 1020,3 - 0,0
19.06.2018 02:00:00 21,2 14,1 25 13 44 24 NW 1020,6 - 0,0
19.06.2018 01:00:00 21,4 14,3 22 12 45 24 NW 1020,9 - 0,0
19.06.2018 00:00:00 21,8 14,4 17 9 35 19 NW 1021,0 - 0,0
18.06.2018 23:00:00 22,3 13,9 19 11 43 23 NW 1020,7 - 0,0
18.06.2018 22:00:00 23,1 13,8 19 11 42 23 NW 1020,0 - 0,0
18.06.2018 21:00:00 24,1 13,3 20 11 47 26 NW 1019,3 - 0,0
18.06.2018 20:00:00 25,1 13,6 19 10 53 29 NW 1019,0 - 0,0
18.06.2018 19:00:00 26,6 14,4 17 9 46 25 NW 1018,5 - 0,0
18.06.2018 18:00:00 27,2 14,2 18 10 58 31 NW 1018,6 - 0,0
18.06.2018 17:00:00 27,4 13,3 21 11 52 28 NW 1018,8 - 0,0
18.06.2018 16:00:00 27,3 13,3 23 12 49 26 NNW 1018,7 - 0,0
18.06.2018 15:00:00 27,1 13,1 22 12 49 26 NNW 1018,8 - 0,0
18.06.2018 14:00:00 26,5 12,9 21 11 51 28 NW 1019,2 20 0,0
18.06.2018 13:00:00 25,7 12,2 21 12 50 27 NW 1019,5 - 0,0
18.06.2018 12:00:00 25,0 11,5 19 10 45 24 NW 1019,9 - 0,0
18.06.2018 11:00:00 24,0 11,3 16 8 43 23 NW 1020,0 - 0,0

tt = temperature
td = dewpoint
ff = wind speed
fx = gusts
dd = wind direction
ppp = reduced air pressure
vv = visibility
rr = precipitation

Next stations